Regional Weather Roundup
Issued by NWS

Home | Current Version | Previous Version | Text Only | Print | Product List | Glossary Off
Versions: 1 2 3 4 5 6 7 8 9 10 11 12 13 14 15 16 17 18 19 20 21 22 23 24 25 26 27 28 29 30 31 32 33 34 35 36 37 38 39 40 41 42 43 44 45 46 47 48 49 50

000
ASUS43 KOAX 231802
RWRNE

WEATHER ROUNDUP FOR NEBRASKA
NATIONAL WEATHER SERVICE OMAHA NE
100 PM CDT FRI JUN 23 2017

NOTES: SATELLITE DATA IS BEING USED TO AUGMENT CLOUD COVER ABOVE
       12000 FEET.
       "FAIR" INDICATES FEW OR NO CLOUDS BELOW 12,000 FEET WITH NO
       SIGNIFICANT WEATHER AND/OR OBSTRUCTIONS TO VISIBILITY.

  * THESE STATIONS DO NOT REPORT WEATHER SUCH AS RAIN...SNOW OR FOG.

NEZ001>004-019>022-054>056-231900-
NEBRASKA PANHANDLE

CITY           SKY/WX    TMP DP  RH WIND       PRES   REMARKS
SCOTTSBLUFF    SUNNY     69  34  27 N14G23    30.21F
6HR MIN TEMP:  54; 6HR MAX TEMP:  69;

ALLIANCE       SUNNY     66  35  31 NW23G30   30.19F
6HR MIN TEMP:  49; 6HR MAX TEMP:  66; 6HR PCP:  0.01;

CHADRON        SUNNY     67  34  29 NW17G25   30.19F
6HR MIN TEMP:  52; 6HR MAX TEMP:  67;

GORDON         FAIR      62  42  47 N15G21    30.18F
6HR MIN TEMP:  51; 6HR MAX TEMP:  63;

KIMBALL        CLOUDY    59  41  52 NW10      30.27F
SIDNEY         CLOUDY    59  40  49 NW14      30.25F
6HR MIN TEMP:  51; 6HR MAX TEMP:  59;

$$

NEZ057>060-069>072-079>082-231900-
SOUTHWEST NEBRASKA

CITY           SKY/WX    TMP DP  RH WIND       PRES   REMARKS
NORTH PLATTE   SUNNY     74  41  30 N14G20    30.15S
6HR MIN TEMP:  59; 6HR MAX TEMP:  75; 6HR PCP: TRACE;

IMPERIAL       CLOUDY    69  40  34 N14       30.20S
6HR MIN TEMP:  56; 6HR MAX TEMP:  72;

LEXINGTON      PTSUNNY   73  46  38 N16       30.12F
MCCOOK         PTSUNNY   75  45  34 N14       30.14F
6HR MIN TEMP:  58; 6HR MAX TEMP:  75;

OGALLALA       CLOUDY    69  35  28 NW9G18    30.18F
$$

NEZ005>010-023>029-035>040-094-231900-
NORTH CENTRAL NEBRASKA

CITY           SKY/WX    TMP DP  RH WIND       PRES   REMARKS
VALENTINE      PTSUNNY   67  38  34 N22G29    30.14S
6HR MIN TEMP:  56; 6HR MAX TEMP:  69; 6HR PCP: TRACE;

AINSWORTH      CLOUDY    64  45  49 N23G30    30.14S
BROKEN BOW     SUNNY     72  46  39 NW18G26   30.12S
6HR MIN TEMP:  59; 6HR MAX TEMP:  72; 6HR PCP: TRACE;

O`NEILL        CLOUDY    67  49  51 NW21G31   30.10R
ORD            SUNNY     71  44  37 NW22G33   30.08F
6HR MIN TEMP:  58; 6HR MAX TEMP:  71; 6HR PCP: TRACE;

THEDFORD       MOSUNNY   68  43  39 N16G29    30.15F
$$

NEZ041-046>049-061>064-073>077-083>087-231900-
SOUTH CENTRAL NEBRASKA

CITY           SKY/WX    TMP DP  RH WIND       PRES   REMARKS
GRAND ISLAND   SUNNY     70  48  45 NW17G24   30.10S
6HR MIN TEMP:  59; 6HR MAX TEMP:  71; 6HR PCP:  0.01;

AURORA         SUNNY     69  49  48 NW14G22   30.09S
HASTINGS       MOSUNNY   69  49  48 N12G22    30.11F
6HR MIN TEMP:  61; 6HR MAX TEMP:  70; 6HR PCP: TRACE;

HEBRON         PTSUNNY   72  46  38 N14       30.07F
HOLDREGE       PTSUNNY   67  47  48 N9        30.12F
KEARNEY *      SUNNY     72  46  40 N18G26    30.11F
$$

NEZ011>018-030>034-042>045-231900-
NORTHEAST NEBRASKA

CITY           SKY/WX    TMP DP  RH WIND       PRES   REMARKS
NORFOLK        PTSUNNY   70  50  49 NW21G26   30.02S
6HR MIN TEMP:  59; 6HR MAX TEMP:  70; 6HR PCP: TRACE;

ALBION         SUNNY     70  48  45 N20G26    30.06S
BLAIR          CLOUDY    68  53  57 NW14      30.03R
FREMONT        PTSUNNY   68  52  56 NW14G23   30.04R
TEKAMAH        PTSUNNY   69  51  52 NW21G28   30.01S
6HR MIN TEMP:  63; 6HR MAX TEMP:  70; 6HR PCP: TRACE;

WAYNE          PTSUNNY   69  49  49 NW22G29   30.02F
$$

NEZ050>053-065>068-078-088>093-231900-
SOUTHEAST NEBRASKA

CITY           SKY/WX    TMP DP  RH WIND       PRES   REMARKS
LINCOLN        CLOUDY    70  51  51 N10G16    30.05F
6HR MIN TEMP:  65; 6HR MAX TEMP:  71; 6HR PCP: TRACE;

OMAHA EPPLEY   CLOUDY    71  53  52 W13       30.01F
6HR MIN TEMP:  63; 6HR MAX TEMP:  71;

BEATRICE       CLOUDY    70  50  49 NW15G21   30.06F
FALLS CITY     PTSUNNY   72  53  51 N21G31    30.00S
6HR MIN TEMP:  66; 6HR MAX TEMP:  74; 6HR PCP: TRACE;

NEBRASKA CITY  PTSUNNY   67  57  71 NW10      30.03F
PLATTSMOUTH    PTSUNNY   67  53  61 NW12      30.03S
$$

NEZ044-045-051>053-067-231900-
OMAHA AREA

CITY           SKY/WX    TMP DP  RH WIND       PRES   REMARKS
OMAHA EPPLEY   CLOUDY    71  53  52 W13       30.01F
6HR MIN TEMP:  63; 6HR MAX TEMP:  71;

BLAIR          CLOUDY    68  53  57 NW14      30.03R
FREMONT        PTSUNNY   68  52  56 NW14G23   30.04R
MILLARD        CLOUDY    70  53  55 NW10G20   30.03S
OFFUTT AFB     MOSUNNY   68  50  52 NW6       30.06S
PLATTSMOUTH    PTSUNNY   67  53  61 NW12      30.03S
WAHOO          FAIR      70  49  48 NW16      30.04S
$$



USA.gov is the U.S. government's official web portal to all federal, state and local government web resources and services.